Location: Uhlířské Janovice, 285 04, Česko
(49.8369°N, 15.0553°E)
Time: 10:04:45
(UTC+01:00)

ISS - Visible Passes

Search period start: 06 December 2021 00:00
Search period end: 16 December 2021 00:00
Orbit: 417 x 422 km, 51.6° (Epoch: 06 December)

Date Brightness Start Highest point End Pass type
(mag) Time Alt. Az. Time Alt. Az. Time Alt. Az.
06 Dec -1.4 18:02:55 10° W 18:05:38 23° SW 18:08:21 10° SSE visible
07 Dec -1.9 17:15:19 10° W 17:18:23 32° SSW 17:21:27 10° SSE visible
08 Dec -0.2 18:07:01 10° SW 18:07:13 10° SW 18:07:26 10° SW visible
09 Dec -0.6 17:17:59 10° W 17:20:03 15° SW 17:22:08 10° S visible
